Regional Weather Roundup
Issued by NWS

Home | Current Version | Previous Version | Text Only | Print | Product List | Glossary On
Versions: 1 2 3 4 5 6 7 8 9 10 11 12 13 14 15 16 17 18 19 20 21 22 23 24 25 26 27
833
ASUS46 KSEW 221210
RWRWA

WASHINGTON REGIONAL WEATHER ROUNDUP
NATIONAL WEATHER SERVICE SEATTLE WA
500 AM PDT FRI MAY 22 2015

NOTE:"FAIR" INDICATES FEW OR NO CLOUDS BELOW 12,000 FEET WITH NO
SIGNIFICANT WEATHER AND/OR OBSTRUCTIONS TO VISIBILITY.

WAZ505-507>509-221300-
SEATTLE, TACOMA, EVERETT, AND VICINITY

CITY           SKY/WX    TMP DP  RH WIND       PRES   REMARKS
EVERETT        CLOUDY    52  50  93 CALM      29.93S FOG
6HR MIN TEMP:  52; 6HR MAX TEMP:  66;

BOEING FIELD   CLOUDY    57  50  77 VRB6      29.94R
6HR MIN TEMP:  57; 6HR MAX TEMP:  68;

RENTON         CLOUDY    56  50  80 S8        29.94R
6HR MIN TEMP:  56; 6HR MAX TEMP:  69;

SEATAC AIRPORT CLOUDY    54  50  86 S10       29.94R
6HR MIN TEMP:  54; 6HR MAX TEMP:  63;

JBLM-MCCHORD   CLOUDY    54  52  95 SW10      29.95R
6HR MIN TEMP:  54; 6HR MAX TEMP:  57; 6HR PCP: TRACE;

PUYALLUP       CLOUDY    54  52  94 SW3       29.95R
BREMERTON      CLOUDY    52  50  93 S7        29.96R
6HR MIN TEMP:  52; 6HR MAX TEMP:  57;

JBLM-FT LEWIS  CLOUDY    53  52  97 VRB7      29.94R
6HR MIN TEMP:  53; 6HR MAX TEMP:  56;

TACOMA NARROWS CLOUDY    53  50  89 SW6       29.95R
6HR MIN TEMP:  52; 6HR MAX TEMP:  57;

$$

WAZ001-503-506-510-514-515-221300-
NORTH INTERIOR

CITY           SKY/WX    TMP DP  RH WIND       PRES   REMARKS
BELLINGHAM     MOCLDY    55  50  83 S10G20    29.90R
6HR MIN TEMP:  55; 6HR MAX TEMP:  61;

FRIDAY HARBOR  PTCLDY    45  44  97 CALM      29.90S
6HR MIN TEMP:  44; 6HR MAX TEMP:  50;

EASTSOUND      PTCLDY    52  48  87 S5        29.88R
PORT ANGELES   CLOUDY    51  48  89 W10       29.93F
6HR MIN TEMP:  50; 6HR MAX TEMP:  51;

PORT TOWNSEND  CLOUDY    52  52 100 CALM      29.93R FOG
NAS WHIDBEY    FOG       53  50  89 SW9       29.97R VSB 1
6HR MIN TEMP:  52; 6HR MAX TEMP:  53;

ARLINGTON      CLOUDY    52  46  82 N5        29.94R
6HR MIN TEMP:  52; 6HR MAX TEMP:  57;

BURLINGTON     CLOUDY    50  50 100 S8        29.94R
$$

WAZ020-022-039-040-504-511-512-221300-
SOUTHWEST INTERIOR

CITY           SKY/WX    TMP DP  RH WIND       PRES   REMARKS
SHELTON        CLOUDY    51  48  89 SW12      29.92R
6HR MIN TEMP:  50; 6HR MAX TEMP:  53;

OLYMPIA        LGT RAIN  52  49  89 SW8       29.95R
6HR MIN TEMP:  51; 6HR MAX TEMP:  56; 6HR PCP:  0.01;

CHEHALIS       CLOUDY    54  52  94 SW7G15    29.97R
KELSO          CLOUDY    54  48  82 NW3       30.01S
6HR MIN TEMP:  54; 6HR MAX TEMP:  55;

VANCOUVER      CLOUDY    56  48  74 VRB5      29.97R
6HR MIN TEMP:  55; 6HR MAX TEMP:  63;

SCAPPOOSE, OR  MOCLDY    54  48  80 CALM      29.97R
6HR MIN TEMP:  54; 6HR MAX TEMP:  60;

PORTLAND, OR   CLOUDY    56  49  77 NW7       29.98R
6HR MIN TEMP:  56; 6HR MAX TEMP:  64; 6HR PCP: TRACE;

$$

WAZ021-516-517-221300-
WASHINGTON COAST

CITY           SKY/WX    TMP DP  RH WIND       PRES   REMARKS
FORKS          CLOUDY    51  51 100 CALM      29.96S FOG
6HR MIN TEMP:  50; 6HR MAX TEMP:  51;

HOQUIAM        CLOUDY    52  51  97 W7        29.97R FOG
6HR MIN TEMP:  52; 6HR MAX TEMP:  53; 6HR PCP: TRACE;

ASTORIA, OR    CLOUDY    52  50  93 W5        29.99R FOG
6HR MIN TEMP:  52; 6HR MAX TEMP:  53; 6HR PCP: TRACE;

$$

WAZ019-023-024-040-518-519-221300-
CASCADE MOUNTAINS AND COLUMBIA GORGE

CITY           SKY/WX    TMP DP  RH WIND       PRES   REMARKS
TROUTDALE, OR  CLOUDY    56  50  80 CALM      29.96R
6HR MIN TEMP:  56; 6HR MAX TEMP:  66; 6HR PCP:  0.01;

THE DALLES, OR MOCLDY    63  51  65 MISG      29.84R
6HR MIN TEMP:  63; 6HR MAX TEMP:  69;

$$

WAZ026-027-041>044-520-521-221300-
EAST SLOPES

CITY           SKY/WX    TMP DP  RH WIND       PRES   REMARKS
OMAK           PTCLDY    62  44  51 NW8       29.81R
6HR MIN TEMP:  57; 6HR MAX TEMP:  66;

WENATCHEE      PTCLDY    62  49  62 W7        29.83R
6HR MIN TEMP:  61; 6HR MAX TEMP:  68;

ELLENSBURG     MOCLDY    62  51  67 NW9       29.84S
6HR MIN TEMP:  62; 6HR MAX TEMP:  66;

YAKIMA         MOCLDY    61  52  72 W3        29.83R
6HR MIN TEMP:  59; 6HR MAX TEMP:  66;

$$

WAZ028-034-035-221300-
COLUMBIA BASIN

CITY           SKY/WX    TMP DP  RH WIND       PRES   REMARKS
EPHRATA        MOCLDY    69  45  41 NW15      29.78F
6HR MIN TEMP:  57; 6HR MAX TEMP:  72;

MOSES LAKE     CLOUDY    63  49  60 E7        29.81R
6HR MIN TEMP:  62; 6HR MAX TEMP:  69;

PASCO          MOCLDY    62  56  80 CALM      29.80S
6HR MIN TEMP:  62; 6HR MAX TEMP:  69;

HERMISTON, OR  CLOUDY    61  54  77 S5        29.81S
6HR MIN TEMP:  58; 6HR MAX TEMP:  66;

$$

WAZ036>038-221300-
NORTHEAST WASHINGTON

CITY           SKY/WX    TMP DP  RH WIND       PRES   REMARKS
SPOKANE GEIGER MOCLDY    59  49  69 S6        29.84F
6HR MIN TEMP:  59; 6HR MAX TEMP:  65; 6HR PCP: TRACE;

SPOKANE FELTS  MOCLDY    56  51  84 NE3       29.85R
6HR MIN TEMP:  56; 6HR MAX TEMP:  70;

FAIRCHILD AFB  CLOUDY    58  51  77 S2        29.85S
6HR MIN TEMP:  56; 6HR MAX TEMP:  62;

COEURDALENE,ID PTCLDY    52  45  76 NE3       29.86R
6HR MIN TEMP:  52; 6HR MAX TEMP:  64;

DEER PARK      PTCLDY    52  48  86 NW3       29.85S
6HR MIN TEMP:  52; 6HR MAX TEMP:  60;

$$

WAZ029>033-221300-
SOUTHEAST WASHINGTON

CITY           SKY/WX    TMP DP  RH WIND       PRES   REMARKS
PULLMAN        CLEAR     50  46  86 CALM      29.88S
6HR MIN TEMP:  49; 6HR MAX TEMP:  62;

LEWISTON, ID   PTCLDY    57  52  83 SE3       29.84S
6HR MIN TEMP:  56; 6HR MAX TEMP:  66;

WALLA WALLA    MOCLDY    64  53  67 S7        29.83S
6HR MIN TEMP:  61; 6HR MAX TEMP:  66; 6HR PCP: TRACE;

PENDLETON, OR  CLOUDY    57  52  83 S5        29.84R
6HR MIN TEMP:  56; 6HR MAX TEMP:  63;

$$



USA.gov is the U.S. government's official web portal to all federal, state and local government web resources and services.